| time (UTC) | temp C | wind direction | speed KPH | gust KPH | rain 1hr cm | rain 24hr cm | rain mn cm | humidity % | barometer mb |
| 20260510140415 | 19 | 220 | 4.8 | 8.0 | 0.00 | 0.00 | 0.00 | 24 | 1005.8 |
| 20260510135403 | 18 | 229 | 3.2 | 12.9 | 0.00 | 0.00 | 0.00 | 25 | 1005.6 |
| 20260510134328 | 17 | 248 | 4.8 | 12.9 | 0.00 | 0.00 | 0.00 | 26 | 1005.5 |
| 20260510133300 | 17 | 171 | 1.6 | 6.4 | 0.00 | 0.00 | 0.00 | 26 | 1005.3 |
| 20260510132235 | 17 | 180 | 1.6 | 4.8 | 0.00 | 0.00 | 0.00 | 27 | 1005.2 |
| 20260510131210 | 16 | 217 | 3.2 | 6.4 | 0.00 | 0.00 | 0.00 | 27 | 1005.1 |
| 20260510130217 | 16 | 256 | 4.8 | 12.9 | 0.00 | 0.00 | 0.00 | 26 | 1005.0 |
| 20260510125220 | 17 | 4 | 6.4 | 12.9 | 0.00 | 0.00 | 0.00 | 26 | 1004.8 |
| 20260510124242 | 17 | 213 | 4.8 | 14.5 | 0.00 | 0.00 | 0.00 | 27 | 1004.5 |
| 20260510123216 | 18 | 268 | 8.0 | 16.1 | 0.00 | 0.00 | 0.00 | 26 | 1004.3 |
| 20260510122211 | 18 | 290 | 8.0 | 16.1 | 0.00 | 0.00 | 0.00 | 26 | 1004.2 |
| 20260510121139 | 18 | 289 | 8.0 | 14.5 | 0.00 | 0.00 | 0.00 | 26 | 1004.1 |
| 20260510120106 | 18 | 302 | 9.7 | 17.7 | 0.00 | 0.00 | 0.00 | 26 | 1004.1 |
| 20260510114017 | 18 | 298 | 11.3 | 19.3 | 0.00 | 0.00 | 0.00 | 24 | 1004.4 |
| 20260510111849 | 17 | 242 | 4.8 | 9.7 | 0.00 | 0.00 | 0.00 | 23 | 1004.5 |
| 20260510110914 | 17 | 239 | 6.4 | 14.5 | 0.00 | 0.00 | 0.00 | 23 | 1004.5 |
| 20260510105900 | 18 | 236 | 8.0 | 14.5 | 0.00 | 0.00 | 0.00 | 22 | 1004.6 |
| 20260510104908 | 18 | 215 | 6.4 | 14.5 | 0.00 | 0.00 | 0.00 | 22 | 1004.5 |
| 20260510103835 | 18 | 227 | 8.0 | 14.5 | 0.00 | 0.00 | 0.00 | 22 | 1004.4 |
| 20260510102828 | 18 | 223 | 6.4 | 17.7 | 0.00 | 0.00 | 0.00 | 22 | 1004.3 |
| 20260510101847 | 18 | 229 | 8.0 | 17.7 | 0.00 | 0.00 | 0.00 | 22 | 1004.3 |
| 20260510100833 | 18 | 221 | 6.4 | 14.5 | 0.00 | 0.00 | 0.00 | 22 | 1004.0 |
| 20260510094754 | 18 | 230 | 6.4 | 16.1 | 0.00 | 0.00 | 0.00 | 21 | 1003.6 |
| 20260510092533 | 19 | 246 | 11.3 | 20.9 | 0.00 | 0.00 | 0.00 | 20 | 1003.6 |
| 20260510091539 | 19 | 249 | 12.9 | 20.9 | 0.00 | 0.00 | 0.00 | 20 | 1003.5 |
| 20260510090517 | 19 | 238 | 9.7 | 17.7 | 0.00 | 0.00 | 0.00 | 21 | 1003.5 |
| 20260510085454 | 19 | 230 | 6.4 | 16.1 | 0.00 | 0.00 | 0.00 | 21 | 1003.5 |
| 20260510084512 | 19 | 230 | 8.0 | 16.1 | 0.00 | 0.00 | 0.00 | 20 | 1003.5 |
| 20260510083528 | 20 | 242 | 12.9 | 24.1 | 0.00 | 0.00 | 0.00 | 20 | 1003.5 |
| 20260510082535 | 20 | 225 | 12.9 | 24.1 | 0.00 | 0.00 | 0.00 | 20 | 1003.4 |
| 20260510080342 | 20 | 244 | 14.5 | 24.1 | 0.00 | 0.00 | 0.00 | 20 | 1003.6 |
| 20260510075403 | 20 | 231 | 17.7 | 30.6 | 0.00 | 0.00 | 0.00 | 19 | 1003.5 |
| 20260510074340 | 20 | 246 | 17.7 | 30.6 | 0.00 | 0.00 | 0.00 | 19 | 1003.5 |
| 20260510073336 | 20 | 246 | 16.1 | 30.6 | 0.00 | 0.00 | 0.00 | 20 | 1003.5 |
| 20260510071240 | 20 | 252 | 11.3 | 22.5 | 0.00 | 0.00 | 0.00 | 20 | 1003.8 |
| 20260510070211 | 20 | 223 | 11.3 | 22.5 | 0.00 | 0.00 | 0.00 | 20 | 1003.7 |
| 20260510065155 | 20 | 226 | 12.9 | 20.9 | 0.00 | 0.00 | 0.00 | 20 | 1003.8 |
| 20260510064148 | 20 | 232 | 11.3 | 20.9 | 0.00 | 0.00 | 0.00 | 20 | 1003.8 |
| 20260510063151 | 20 | 236 | 11.3 | 30.6 | 0.00 | 0.00 | 0.00 | 19 | 1003.7 |
| 20260510062155 | 20 | 184 | 12.9 | 30.6 | 0.00 | 0.00 | 0.00 | 19 | 1003.8 |
| 20260510061150 | 21 | 234 | 14.5 | 25.7 | 0.00 | 0.00 | 0.00 | 19 | 1003.7 |
| 20260510060128 | 21 | 228 | 14.5 | 29.0 | 0.00 | 0.00 | 0.00 | 19 | 1003.6 |
| 20260510055152 | 21 | 195 | 14.5 | 29.0 | 0.00 | 0.00 | 0.00 | 18 | 1003.6 |
| 20260510054158 | 21 | 228 | 17.7 | 29.0 | 0.00 | 0.00 | 0.00 | 18 | 1003.6 |
| 20260510053157 | 21 | 223 | 17.7 | 32.2 | 0.00 | 0.00 | 0.00 | 18 | 1003.4 |
| 20260510052123 | 21 | 223 | 16.1 | 32.2 | 0.00 | 0.00 | 0.00 | 18 | 1003.5 |
| 20260510051143 | 21 | 236 | 16.1 | 29.0 | 0.00 | 0.00 | 0.00 | 18 | 1003.5 |
| 20260510044942 | 21 | 253 | 12.9 | 27.4 | 0.00 | 0.00 | 0.00 | 18 | 1003.4 |
| 20260510043943 | 21 | 222 | 11.3 | 20.9 | 0.00 | 0.00 | 0.00 | 17 | 1003.4 |
| 20260510042909 | 21 | 214 | 11.3 | 20.9 | 0.00 | 0.00 | 0.00 | 17 | 1003.2 |
| 20260510041910 | 21 | 227 | 11.3 | 19.3 | 0.00 | 0.00 | 0.00 | 16 | 1003.2 |
| 20260510040934 | 21 | 231 | 11.3 | 20.9 | 0.00 | 0.00 | 0.00 | 16 | 1003.1 |
| 20260510034807 | 21 | 217 | 11.3 | 19.3 | 0.00 | 0.00 | 0.00 | 16 | 1002.8 |
| 20260510033806 | 21 | 233 | 8.0 | 16.1 | 0.00 | 0.00 | 0.00 | 16 | 1002.8 |
| 20260510032734 | 21 | 240 | 8.0 | 16.1 | 0.00 | 0.00 | 0.00 | 16 | 1002.5 |
| 20260510031711 | 22 | 229 | 8.0 | 14.5 | 0.00 | 0.00 | 0.00 | 16 | 1002.5 |
| 20260510025532 | 22 | 223 | 9.7 | 19.3 | 0.00 | 0.00 | 0.00 | 15 | 1002.1 |
| 20260510024507 | 22 | 227 | 11.3 | 22.5 | 0.00 | 0.00 | 0.00 | 15 | 1001.9 |
| 20260510023527 | 23 | 4 | 11.3 | 24.1 | 0.00 | 0.00 | 0.00 | 14 | 1001.8 |
| 20260510021350 | 23 | 200 | 14.5 | 22.5 | 0.00 | 0.00 | 0.00 | 14 | 1001.4 |
| 20260510020358 | 24 | 173 | 14.5 | 27.4 | 0.00 | 0.00 | 0.00 | 13 | 1001.3 |
| 20260510015335 | 25 | 162 | 17.7 | 27.4 | 0.00 | 0.00 | 0.00 | 13 | 1001.2 |
| 20260510014316 | 25 | 233 | 19.3 | 37.0 | 0.00 | 0.00 | 0.00 | 13 | 1001.1 |
| 20260510013324 | 25 | 4 | 19.3 | 37.0 | 0.00 | 0.00 | 0.00 | 12 | 1001.0 |
| 20260510012341 | 26 | 173 | 22.5 | 40.2 | 0.00 | 0.00 | 0.00 | 12 | 1000.9 |
| 20260510010222 | 26 | 211 | 22.5 | 38.6 | 0.00 | 0.00 | 0.00 | 12 | 1000.9 |
| 20260510005216 | 27 | 214 | 20.9 | 35.4 | 0.00 | 0.00 | 0.00 | 12 | 1000.8 |
| 20260510004208 | 27 | 186 | 20.9 | 38.6 | 0.00 | 0.00 | 0.00 | 12 | 1000.8 |
| 20260510003212 | 27 | 167 | 24.1 | 38.6 | 0.00 | 0.00 | 0.00 | 12 | 1000.8 |
| 20260510002233 | 27 | 179 | 19.3 | 43.5 | 0.00 | 0.00 | 0.00 | 12 | 1000.8 |
| 20260510001212 | 28 | 165 | 20.9 | 43.5 | 0.00 | 0.00 | 0.00 | 11 | 1000.6 |
| 20260509235020 | 28 | 157 | 20.9 | 40.2 | 0.00 | 0.00 | 0.00 | 12 | 1000.6 |
| 20260509233954 | 28 | 182 | 24.1 | 40.2 | 0.00 | 0.00 | 0.00 | 12 | 1000.6 |
| 20260509232949 | 29 | 168 | 16.1 | 40.2 | 0.00 | 0.00 | 0.00 | 12 | 1000.6 |
| 20260509231920 | 28 | 148 | 20.9 | 40.2 | 0.00 | 0.00 | 0.00 | 12 | 1000.8 |
| 20260509230926 | 28 | 212 | 19.3 | 33.8 | 0.00 | 0.00 | 0.00 | 12 | 1000.8 |
| 20260509224828 | 30 | 200 | 14.5 | 51.5 | 0.00 | 0.00 | 0.00 | 11 | 1001.1 |
| 20260509223821 | 28 | 153 | 20.9 | 51.5 | 0.00 | 0.00 | 0.00 | 11 | 1001.2 |
| 20260509222750 | 29 | 105 | 14.5 | 30.6 | 0.00 | 0.00 | 0.00 | 12 | 1001.1 |
| 20260509221740 | 28 | 142 | 16.1 | 38.6 | 0.00 | 0.00 | 0.00 | 12 | 1001.6 |
| 20260509215650 | 28 | 194 | 17.7 | 33.8 | 0.00 | 0.00 | 0.00 | 12 | 1001.8 |
| 20260509214708 | 29 | 174 | 16.1 | 29.0 | 0.00 | 0.00 | 0.00 | 12 | 1002.2 |
| 20260509210253 | 28 | 198 | 14.5 | 29.0 | 0.00 | 0.00 | 0.00 | 12 | 1002.8 |
| 20260509205251 | 28 | 76 | 14.5 | 35.4 | 0.00 | 0.00 | 0.00 | 12 | 1003.2 |
| 20260509203159 | 28 | 134 | 11.3 | 27.4 | 0.00 | 0.00 | 0.00 | 12 | 1003.4 |
| 20260509202135 | 28 | 223 | 12.9 | 27.4 | 0.00 | 0.00 | 0.00 | 12 | 1003.5 |
| 20260509201147 | 28 | 91 | 8.0 | 25.7 | 0.00 | 0.00 | 0.00 | 12 | 1003.6 |
| 20260509200130 | 28 | 134 | 11.3 | 27.4 | 0.00 | 0.00 | 0.00 | 12 | 1003.8 |
| 20260509195122 | 28 | 160 | 12.9 | 30.6 | 0.00 | 0.00 | 0.00 | 11 | 1004.1 |
| 20260509194122 | 28 | 209 | 14.5 | 30.6 | 0.00 | 0.00 | 0.00 | 11 | 1004.1 |
| 20260509193123 | 28 | 253 | 12.9 | 25.7 | 0.00 | 0.00 | 0.00 | 11 | 1004.1 |
| 20260509192130 | 28 | 238 | 11.3 | 25.7 | 0.00 | 0.00 | 0.00 | 12 | 1004.3 |
| 20260509190007 | 27 | 207 | 16.1 | 32.2 | 0.00 | 0.00 | 0.00 | 12 | 1004.5 |
| 20260509183836 | 27 | 244 | 16.1 | 27.4 | 0.00 | 0.00 | 0.00 | 13 | 1004.6 |
| 20260509181727 | 27 | 205 | 11.3 | 25.7 | 0.00 | 0.00 | 0.00 | 15 | 1004.8 |
| 20260509180735 | 27 | 235 | 12.9 | 25.7 | 0.00 | 0.00 | 0.00 | 14 | 1004.8 |
| 20260509175758 | 27 | 217 | 11.3 | 25.7 | 0.00 | 0.00 | 0.00 | 15 | 1005.0 |
| 20260509174815 | 27 | 206 | 11.3 | 22.5 | 0.00 | 0.00 | 0.00 | 16 | 1005.0 |
| 20260509173756 | 26 | 172 | 11.3 | 22.5 | 0.00 | 0.00 | 0.00 | 16 | 1005.2 |
| 20260509170441 | 25 | 150 | 11.3 | 25.7 | 0.00 | 0.00 | 0.00 | 18 | 1005.3 |
| 20260509165411 | 25 | 209 | 14.5 | 25.7 | 0.00 | 0.00 | 0.00 | 18 | 1005.3 |
| 20260509163153 | 24 | 199 | 11.3 | 22.5 | 0.00 | 0.00 | 0.00 | 19 | 1005.3 |
| 20260509162141 | 24 | 235 | 8.0 | 19.3 | 0.00 | 0.00 | 0.00 | 19 | 1005.3 |
| 20260509161144 | 23 | 190 | 11.3 | 20.9 | 0.00 | 0.00 | 0.00 | 20 | 1005.4 |
| 20260509160157 | 23 | 209 | 11.3 | 20.9 | 0.00 | 0.00 | 0.00 | 21 | 1005.5 |
| 20260509155141 | 22 | 195 | 11.3 | 20.9 | 0.00 | 0.00 | 0.00 | 21 | 1005.5 |
| 20260509154116 | 22 | 204 | 11.3 | 20.9 | 0.00 | 0.00 | 0.00 | 22 | 1005.5 |
| 20260509153106 | 21 | 155 | 11.3 | 19.3 | 0.00 | 0.00 | 0.00 | 23 | 1005.4 |
| 20260509152126 | 21 | 203 | 11.3 | 17.7 | 0.00 | 0.00 | 0.00 | 23 | 1005.4 |
| 20260509151105 | 21 | 213 | 9.7 | 17.7 | 0.00 | 0.00 | 0.00 | 24 | 1005.5 |
| 20260509150127 | 20 | 182 | 11.3 | 19.3 | 0.00 | 0.00 | 0.00 | 25 | 1005.4 |
| 20260509145104 | 20 | 192 | 9.7 | 24.1 | 0.00 | 0.00 | 0.00 | 25 | 1005.5 |
| 20260509142949 | 20 | 193 | 9.7 | 20.9 | 0.00 | 0.00 | 0.00 | 24 | 1005.4 |